Location: Flotzheim
(48.8375°N, 10.8136°E)
Time: 03:42:51
(UTC+00:00)

CZ-4C R/B - Pass Details

Date: 23 January 2021
Orbit: 407 x 488 km, 97.7° (Epoch: 26 February)

Event Time Altitude Azimuth Distance (km) Brightness Sun altitude
Rises 16:42:18 0° 11° (N) 2,351 6.2 -7.1°
Reaches altitude 10° 16:44:17 10° 9° (N) 1,485 5.2 -7.4°
Maximum altitude 16:47:26 70° 286° (WNW) 443 3.0 -7.9°
Drops below altitude 10° 16:50:35 10° 202° (SSW) 1,486 6.2 -8.4°
Sets 16:52:35 0° 200° (SSW) 2,353 7.2 -8.7°
